Find Starlink 1230

NORAD ID: 45189 Int'l Des: 2020-012 Owner: SPXS Country: US Constellation: starlink operational
LEOCIRCULAR

Current View

Loading 3D Globe...

About Starlink 1230

Starlink 1230 (NORAD 45189) is a starlink constellation satellite (v1.0) launched Feb 17, 2020 by SPXS of US. It operates in LEO, CIRCULAR orbit with a mass of 260.00 kg.

About Starlink 1230

Description loading...

Upcoming Passes

Passes for default location (London). Set your location on the main map for personalized predictions.

Altitude History

Loading altitude history...

Two-Line Element Set

1 45189U 20012M 26170.64157266 .00040853 00000-0 11540-2 0 9998
2 45189 53.1545 284.7330 0002621 299.4335 60.6406 15.35983165347793
Epoch: Jun 19, 2026 • Age: 13 hours

Current Status

Altitude 469.4 km
Velocity 7.63 km/s
Sub-Earth Point -37.49°S, 155.27°E
Launch Date Feb 17, 2020
Age 6.3 years
Type internet

Technical Details

Classification Payload
Mass 260.00 kg
Dry Mass 248.00 kg
Total Mass 260.00 kg
Length 0.20 m
Diameter 2.80 m
Span 9.00 m
Shape Box + pan
Manufacturer SPXS
Bus Type Starlink
Phase Status In Orbit
Owner/State SPXS/US

Most Searched